Location: Prescott
(34.5400°N, 112.4680°W)
Time: 01:36:10
(UTC-07:00)

Amateur Radio Satellites - All Passes

Search period start: 02 August 2014 01:06
Search period end: 03 August 2014 01:06
Location: Prescott, 34.5400°N, 112.4680°W

Satellite Date Start Highest point End Downlink Frequencies (MHz)
Time Altitude Azimuth
Oscar 19 02 Aug 01:07:18 01:11:06 20° 95° (E) 01:14:52 437.125 CW, 437.150 USB
PCSat 02 Aug 01:26:00 01:26:34 10° 315° (NW) 01:27:09 145.825 MHz
Oscar 16 02 Aug 01:35:36 01:40:29 42° 99° (E) 01:45:22 437.025 USB, Beacon 2401.1428
JAS-1B 02 Aug 01:48:59 01:55:12 22° 88° (E) 02:00:43 435.800 - 435.900 CW/SSB
ITAMSAT 1 02 Aug 02:05:55 02:10:35 34° 98° (E) 02:15:14 435.822 SSB
Uribyol 2 02 Aug 02:23:54 02:28:58 56° 101° (E) 02:34:01 436.500 FM
AO-27 02 Aug 02:26:01 02:31:07 57° 101° (E) 02:36:11 436.795 MHz FM
AO-Echo 02 Aug 02:26:57 02:31:52 61° 101° (E) 02:36:36 ?
PANSAT 02 Aug 02:42:09 02:45:23 26° 169° (S) 02:48:38 not established
Oscar 19 02 Aug 02:45:43 02:50:31 40° 289° (WNW) 02:55:19 437.125 CW, 437.150 USB
TMSAT-1 02 Aug 02:46:57 02:51:16 25° 96° (E) 02:55:33 436.925 FM
OPAL 02 Aug 02:59:32 03:03:41 28° 67° (ENE) 03:07:50 ?
Gurwin Techsat 1B 02 Aug 03:13:32 03:18:50 67° 102° (ESE) 03:24:05 435.225 FM
Oscar 16 02 Aug 03:15:48 03:19:30 20° 293° (WNW) 03:23:12 437.025 USB, Beacon 2401.1428
KITSAT 1 02 Aug 03:27:53 03:32:52 18° 102° (ESE) 03:37:51 435.175 FM
AO-7 02 Aug 03:30:09 03:35:34 19° 94° (E) 03:40:57 29.400 - 29.500 MHz
JAS-1B 02 Aug 03:37:41 03:46:35 69° 288° (WNW) 03:54:01 435.800 - 435.900 CW/SSB
ITAMSAT 1 02 Aug 03:45:47 03:49:52 24° 292° (WNW) 03:53:56 435.822 SSB
ISS 02 Aug 03:53:19 03:56:04 23° 34° (NE) 03:58:48 145.800 FM
Uribyol 2 02 Aug 04:05:03 04:07:56 15° 296° (WNW) 04:10:48 436.500 FM
AO-27 02 Aug 04:07:13 04:10:07 15° 296° (WNW) 04:13:00 436.795 MHz FM
AO-Echo 02 Aug 04:07:51 04:10:01 13° 296° (WNW) 04:12:09 ?
PANSAT 02 Aug 04:21:42 04:25:12 33° 182° (S) 04:28:42 not established
TMSAT-1 02 Aug 04:26:28 04:31:10 33° 290° (WNW) 04:35:51 436.925 FM
Uosat F 02 Aug 04:27:47 04:32:40 51° 101° (E) 04:37:30 435.120 FM
OPAL 02 Aug 04:38:16 04:42:27 28° 261° (W) 04:46:40 ?
MaSat-1 02 Aug 04:40:49 04:44:26 19° 54° (NE) 04:47:53 437.345 MHz
Gurwin Techsat 1B 02 Aug 04:55:40 04:58:10 14° 297° (WNW) 05:00:40 435.225 FM
KITSAT 1 02 Aug 05:19:12 05:27:18 80° 298° (WNW) 05:35:27 435.175 FM
AO-7 02 Aug 05:20:41 05:29:00 77° 289° (WNW) 05:37:15 29.400 - 29.500 MHz
Hamsat 02 Aug 05:29:22 05:32:01 16° 94° (E) 05:34:41 145.90 MHz
ISS 02 Aug 05:29:47 05:32:48 31° 229° (SW) 05:35:47 145.800 FM
STRAND 1 02 Aug 05:30:35 05:34:20 21° 67° (ENE) 05:38:05 ?
JAS-1B 02 Aug 05:31:29 05:35:06 13° 309° (NW) 05:38:32 435.800 - 435.900 CW/SSB
JAS-2 02 Aug 05:42:13 05:45:56 18° 92° (E) 05:49:29 435.800 - 435.900 CW/SSB, 435.910 FM
Saudisat 1A 02 Aug 05:50:22 05:54:43 64° 117° (ESE) 05:59:06 436.775 MHz
PANSAT 02 Aug 06:01:57 06:04:59 22° 194° (SSW) 06:07:59 not established
Uosat F 02 Aug 06:08:03 06:10:59 16° 295° (WNW) 06:13:54 435.120 FM
MaSat-1 02 Aug 06:17:03 06:22:05 51° 252° (WSW) 06:26:40 437.345 MHz
Hamsat 02 Aug 07:04:06 07:08:04 36° 287° (WNW) 07:12:02 145.90 MHz
STRAND 1 02 Aug 07:08:24 07:13:12 40° 261° (W) 07:18:02 ?
AO-7 02 Aug 07:16:19 07:20:25 15° 307° (NW) 07:24:30 29.400 - 29.500 MHz
KITSAT 1 02 Aug 07:18:52 07:24:00 18° 318° (NW) 07:29:09 435.175 FM
JAS-2 02 Aug 07:26:04 07:31:20 43° 289° (WNW) 07:36:15 435.800 - 435.900 CW/SSB, 435.910 FM
SO-67 02 Aug 07:29:15 07:32:42 62° 100° (E) 07:36:08 435.3500 MHz FM
Saudisat 1A 02 Aug 07:32:36 07:34:43 13° 313° (NW) 07:36:49 436.775 MHz
Sapphire 02 Aug 07:56:21 08:00:23 21° 52° (NE) 08:04:23 437.095 MHz 1200 baud AX-25 AFSK
PCSat 02 Aug 08:28:31 08:33:38 41° 59° (ENE) 08:38:43 145.825 MHz
HO-68 02 Aug 08:40:16 08:46:14 28° 97° (E) 08:52:10 435.675 MHz FM
Sapphire 02 Aug 09:38:50 09:44:03 50° 249° (WSW) 09:49:14 437.095 MHz 1200 baud AX-25 AFSK
UKube-1 02 Aug 09:39:58 09:44:17 61° 101° (ESE) 09:48:33 145.840 MHz, 145.915 MHz
SO-50 02 Aug 09:55:31 09:58:31 18° 109° (ESE) 10:01:34 436.795 FM
PCSat 02 Aug 10:12:37 10:16:44 22° 254° (WSW) 10:20:50 145.825 MHz
Oscar 11 02 Aug 10:19:50 10:24:11 86° 284° (WNW) 10:28:32 145.825 FM, Beacon 2401.500 USB
HO-68 02 Aug 10:27:18 10:34:03 47° 292° (WNW) 10:40:47 435.675 MHz FM
FUNcube-1 02 Aug 10:54:41 10:58:55 84° 103° (ESE) 11:03:12 145.950 - 145.970 MHz USB
UKube-1 02 Aug 11:19:21 11:19:55 10° 296° (WNW) 11:20:29 145.840 MHz, 145.915 MHz
UOSAT-12 02 Aug 11:30:57 11:32:31 12° 107° (ESE) 11:34:05 437.025 FM, 437.400 FM
SO-50 02 Aug 11:34:36 11:38:45 37° 304° (NW) 11:42:58 436.795 FM
RS-15 02 Aug 11:52:25 12:03:18 59° 112° (ESE) 12:13:54 29.354 - 29.394 USB, Beacon 29.352 USB
Oscar 19 02 Aug 12:21:10 12:24:55 21° 67° (ENE) 12:28:42 437.125 CW, 437.150 USB
JAS-1B 02 Aug 12:29:06 12:34:44 18° 54° (NE) 12:40:33 435.800 - 435.900 CW/SSB
Oscar 16 02 Aug 12:49:12 12:54:00 42° 72° (ENE) 12:58:49 437.025 USB, Beacon 2401.1428
UOSAT-12 02 Aug 13:07:33 13:12:04 60° 301° (WNW) 13:16:42 437.025 FM, 437.400 FM
KITSAT 1 02 Aug 13:17:03 13:23:51 29° 49° (NE) 13:30:36 435.175 FM
ITAMSAT 1 02 Aug 13:20:31 13:25:16 37° 71° (ENE) 13:30:01 435.822 SSB
AO-Echo 02 Aug 13:35:43 13:40:53 56° 74° (ENE) 13:46:05 ?
Uribyol 2 02 Aug 13:38:15 13:43:21 60° 74° (ENE) 13:48:27 436.500 FM
AO-27 02 Aug 13:40:37 13:45:45 61° 74° (ENE) 13:50:53 436.795 MHz FM
Oscar 19 02 Aug 13:59:14 14:03:58 38° 262° (W) 14:08:44 437.125 CW, 437.150 USB
TMSAT-1 02 Aug 14:04:22 14:08:50 28° 69° (ENE) 14:13:19 436.925 FM
RS-15 02 Aug 14:06:02 14:16:02 38° 312° (NW) 14:25:58 29.354 - 29.394 USB, Beacon 29.352 USB
JAS-1B 02 Aug 14:14:31 14:23:29 78° 73° (ENE) 14:33:23 435.800 - 435.900 CW/SSB
Saudisat 1A 02 Aug 14:21:10 14:24:26 20° 51° (NE) 14:27:41 436.775 MHz
AO-7 02 Aug 14:25:57 14:31:45 21° 57° (ENE) 14:37:32 29.400 - 29.500 MHz
Oscar 16 02 Aug 14:29:59 14:33:29 19° 266° (W) 14:37:00 437.025 USB, Beacon 2401.1428
Gurwin Techsat 1B 02 Aug 14:31:04 14:36:21 74° 75° (ENE) 14:41:40 435.225 FM
ITAMSAT 1 02 Aug 15:00:48 15:04:47 22° 265° (W) 15:08:48 435.822 SSB
KITSAT 1 02 Aug 15:11:47 15:19:41 61° 248° (WSW) 15:27:33 435.175 FM
AO-Echo 02 Aug 15:16:53 15:19:55 15° 268° (W) 15:22:57 ?
Uribyol 2 02 Aug 15:20:44 15:23:09 13° 268° (W) 15:25:34 436.500 FM
AO-27 02 Aug 15:23:11 15:25:36 13° 268° (W) 15:28:00 436.795 MHz FM
Uosat F 02 Aug 15:37:33 15:42:23 49° 73° (ENE) 15:47:15 435.120 FM
TMSAT-1 02 Aug 15:44:02 15:48:38 30° 263° (W) 15:53:15 436.925 FM
Saudisat 1A 02 Aug 16:00:04 16:04:07 36° 246° (WSW) 16:08:08 436.775 MHz
JAS-1B 02 Aug 16:08:05 16:14:45 23° 271° (W) 16:21:56 435.800 - 435.900 CW/SSB
AO-7 02 Aug 16:15:14 16:23:36 79° 254° (WSW) 16:32:00 29.400 - 29.500 MHz
Gurwin Techsat 1B 02 Aug 16:15:39 16:16:47 11° 269° (W) 16:17:55 435.225 FM
RS-15 02 Aug 16:29:01 16:33:01 12° 345° (NNW) 16:37:01 29.354 - 29.394 USB, Beacon 29.352 USB
OPAL 02 Aug 16:50:29 16:55:37 81° 286° (WNW) 17:00:47 ?
Uosat F 02 Aug 17:18:26 17:21:23 16° 266° (W) 17:24:21 435.120 FM
JAS-2 02 Aug 17:31:24 17:38:55 56° 72° (ENE) 17:45:53 435.800 - 435.900 CW/SSB, 435.910 FM
Hamsat 02 Aug 17:53:31 17:57:40 80° 258° (WSW) 18:01:54 145.90 MHz
SO-67 02 Aug 18:00:58 18:02:25 12° 69° (ENE) 18:03:52 435.3500 MHz FM
AO-7 02 Aug 18:14:43 18:17:23 12° 269° (W) 18:20:05 29.400 - 29.500 MHz
MaSat-1 02 Aug 18:30:43 18:31:30 10° 97° (E) 18:32:17 437.345 MHz
RS-15 02 Aug 18:46:47 18:52:35 15° 24° (NNE) 18:58:26 29.354 - 29.394 USB, Beacon 29.352 USB
HO-68 02 Aug 19:07:38 19:11:28 15° 58° (ENE) 19:15:17 435.675 MHz FM
JAS-2 02 Aug 19:17:47 19:24:01 26° 265° (W) 19:29:59 435.800 - 435.900 CW/SSB, 435.910 FM
STRAND 1 02 Aug 19:22:14 19:27:21 88° 284° (WNW) 19:32:26 ?
SO-67 02 Aug 19:32:08 19:35:10 29° 263° (W) 19:38:14 435.3500 MHz FM
MaSat-1 02 Aug 20:03:58 20:07:56 54° 296° (WNW) 20:12:34 437.345 MHz
SO-50 02 Aug 20:08:57 20:13:44 72° 60° (ENE) 20:18:33 436.795 FM
UKube-1 02 Aug 20:32:15 20:36:11 34° 72° (ENE) 20:40:07 145.840 MHz, 145.915 MHz
ISS 02 Aug 20:32:43 20:35:52 43° 133° (SE) 20:39:03 145.800 FM
HO-68 02 Aug 20:51:01 20:58:11 89° 254° (WSW) 21:05:24 435.675 MHz FM
Oscar 10/S400 02 Aug 20:53:24 21:12:45 64° 159° (SSE) 22:43:18 145.825 - 145.975 CW/USB, Beacon 145.810 USB
RS-15 02 Aug 20:57:50 21:08:31 50° 53° (NE) 21:19:32 29.354 - 29.394 USB, Beacon 29.352 USB
Oscar 11 02 Aug 21:11:24 21:15:30 46° 74° (ENE) 21:19:37 145.825 FM, Beacon 2401.500 USB
UOSAT-12 02 Aug 21:40:34 21:45:05 43° 56° (ENE) 21:49:30 437.025 FM, 437.400 FM
FUNcube-1 02 Aug 21:47:52 21:51:54 41° 74° (ENE) 21:55:53 145.950 - 145.970 MHz USB
SO-50 02 Aug 21:52:48 21:53:42 11° 254° (WSW) 21:54:36 436.795 FM
UKube-1 02 Aug 22:09:32 22:12:26 17° 265° (W) 22:15:20 145.840 MHz, 145.915 MHz
ISS 02 Aug 22:10:20 22:12:44 18° 329° (NNW) 22:15:08 145.800 FM
Sapphire 02 Aug 22:34:09 22:39:00 35° 109° (ESE) 22:43:53 437.095 MHz 1200 baud AX-25 AFSK
HO-68 02 Aug 22:43:59 22:46:38 12° 269° (W) 22:49:18 435.675 MHz FM
Oscar 11 02 Aug 22:50:14 22:51:53 12° 268° (W) 22:53:33 145.825 FM, Beacon 2401.500 USB
PCSat 02 Aug 23:06:20 23:11:42 79° 114° (ESE) 23:17:08 145.825 MHz
RS-15 02 Aug 23:10:28 23:20:38 43° 252° (WSW) 23:31:13 29.354 - 29.394 USB, Beacon 29.352 USB
UOSAT-12 02 Aug 23:21:47 23:24:51 17° 251° (WSW) 23:27:53 437.025 FM, 437.400 FM
FUNcube-1 02 Aug 23:26:30 23:28:27 13° 267° (W) 23:30:23 145.950 - 145.970 MHz USB
Sapphire 03 Aug 00:17:52 00:22:25 27° 305° (NW) 00:27:01 437.095 MHz 1200 baud AX-25 AFSK
PANSAT 03 Aug 00:39:24 00:40:48 12° 158° (SSE) 00:42:12 not established
PCSat 03 Aug 00:52:57 00:55:44 14° 312° (NW) 00:58:32 145.825 MHz
